This demonstration page uses our WeatherBlox Daily Observations layout. Learn more.

Left ArrowRight Arrow

44.89941, -97.11507

Hourly Observations for July 14, 2016

Temp ( °F °C ) Dew Point ( °F °C ) Humidity (%) Winds ( mph kmh ) Pressure ( in mb ) Visibility ( mi km ) Precip ( " mm )
12:53 am 00:53 Clear 65 18.3 55 12.8 70 70 W 7 11 29.88 1012 10 16 0.00 0.00
1:53 am 01:53 Clear 61 16.1 54 12.2 78 78 W 8 13 29.88 1012 10 16 0.00 0.00
2:53 am 02:53 Clear 65 18.3 54 12.2 68 68 WNW 8 13 29.87 1012 10 16 0.00 0.00
3:53 am 03:53 Clear 64 17.8 55 12.8 73 73 WNW 13 20 29.87 1012 10 16 0.00 0.00
4:53 am 04:53 Clear 63 17.2 56 13.3 78 78 WNW 9 15 29.89 1012 10 16 0.00 0.00
5:53 am 05:53 Clear 61 16.1 56 13.3 84 84 W 9 15 29.91 1013 10 16 0.00 0.00
6:53 am 06:53 Sunny 62 16.7 56 13.3 80 80 W 10 17 29.92 1013 10 16 0.00 0.00
7:53 am 07:53 Mostly Sunny 63 17.2 57 13.9 81 81 WNW 13 20 29.94 1014 10 16 0.00 0.00
8:46 am 08:46 Mostly Cloudy 64 17.8 55 12.8 73 73 NW 18 30 29.94 1014 10 16 0.00 0.00
8:53 am 08:53 Mostly Cloudy 64 17.8 55 12.8 73 73 NW 14 22 29.97 1015 10 16 0.00 0.00
9:08 am 09:08 Partly Cloudy 64 17.8 55 12.8 73 73 NW 16 26 29.94 1014 10 16 0.00 0.00
9:53 am 09:53 Mostly Cloudy 66 18.9 55 12.8 68 68 NW 17 28 29.98 1015 10 16 0.00 0.00
10:51 am 10:51 Cloudy 64 18 55 13 73 73 NNW 20 31 29.94 1014 10 16 0.00 0.00
10:53 am 10:53 Cloudy 64 17.8 55 12.8 73 73 NNW 17 28 29.99 1016 10 16 0.00 0.00
11:25 am 11:25 Cloudy 69 20.6 55 12.8 61 61 NW 20 31 29.91 1013 10 16 0.00 0.00
11:39 am 11:39 Cloudy 69 20.6 55 12.8 61 61 NW 21 33 29.91 1013 10 16 0.00 0.00
11:53 am 11:53 Cloudy 68 20 54 12.2 61 61 NW 18 30 29.99 1016 10 16 0.00 0.00
12:02 pm 12:02 Cloudy 67 19.4 54 12.2 63 63 NW 18 30 29.94 1014 10 16 0.00 0.00
12:25 pm 12:25 Mostly Cloudy 70 21.1 53 11.7 55 55 NW 20 31 29.91 1013 10 16 0.00 0.00
12:53 pm 12:53 Mostly Cloudy 69 20.6 52 11.1 55 55 NNW 17 28 30.01 1016 10 16 0.00 0.00
1:53 pm 13:53 Cloudy 67 19.4 53 11.7 61 61 NW 18 30 30.02 1017 10 16 0.00 0.00
2:53 pm 14:53 Cloudy 66 18.9 55 12.8 68 68 NNW 20 31 30.04 1017 10 16 0.00 0.00
3:33 pm 15:33 Cloudy with Light Rain 62 16.7 56 13.3 80 80 NNW 14 22 30.00 1016 8 13 0.00 0.03
3:41 pm 15:41 Cloudy with Light Rain 62 16.7 57 13.9 84 84 NW 12 19 30.00 1016 9 14 0.00 0.03
3:53 pm 15:53 Cloudy 65 18.3 58 14.4 78 78 WNW 12 19 30.04 1017 10 16 0.00 0.03
4:04 pm 16:04 Cloudy 66 18.9 57 13.9 73 73 NW 15 24 30.00 1016 10 16 0.00 0.00
4:53 pm 16:53 Mostly Cloudy 70 21.1 54 12.2 57 57 N 22 35 30.03 1017 10 16 0.00 0.00
5:53 pm 17:53 Cloudy 69 20.6 52 11.1 55 55 N 20 31 30.05 1018 10 16 0.00 0.00
6:53 pm 18:53 Sunny 69 20.6 50 10 51 51 N 14 22 30.05 1018 10 16 0.00 0.00
7:53 pm 19:53 Sunny 67 19.4 49 9.4 53 53 N 13 20 30.06 1018 10 16 0.00 0.00
8:53 pm 20:53 Sunny 62 16.7 49 9.4 62 62 N 7 11 30.08 1019 10 16 0.00 0.00
9:53 pm 21:53 Clear 58 14.4 49 9.4 72 72 N 3 6 30.10 1019 10 16 0.00 0.00
10:53 pm 22:53 Clear 56 13.3 49 9.4 77 77 N 3 6 30.10 1019 10 16 0.00 0.00
11:53 pm 23:53 Clear 54 12.2 49 9.4 83 83 Calm 30.11 1020 10 16 0.00 0.00

Powered by AerisWeather